Content
SEND FEEDBACK

Daily
Averages
Monthly
Summary
United States of America

BAMBERG, SOUTH CAROLINA


Home > North America > United States > South Carolina
Elevation: 151 feet     Latitude: 33 17N     Longitude: 081 02W

WEATHER
 
SELECT A DAY
Number of Records: 190,351;   Date Range: 3/20/97 - 8/28/14
 
SHARE

PRINT THIS DATA

[ ← Previous Day ]
WEATHER ALMANAC - JANUARY 31, 2013
[ Next Day → ]
[ °C ]   °F
Weather ElementAverageHighLow
Temperature48.1 °F55 °F (2:53 pm)42.1 °F (7:53 am)
Dewpoint26.5 °F46.9 °F (1:53 am)18 °F (1:53 pm)
Humidity45.4 %80 % (1:53 am)24 % (3:53 pm)
Barometer30.00 in30.18 in (11:53 pm)29.74 in (1:53 am)
Wind Speed15.1 mph23 mph (5:53 am)
Wind Gust36.8 mph (3:53 am)
Weather ElementAverage
Visibility10 mi
Wind DirectionW (270.4 °)

Weather ElementTotal
Precipitation---
Heating Degree Days16.5 (Base 65)
Averaged from 23 records on January 31, 2013
WEATHER CONDITIONS BREAKOUT
WIND DIRECTION BREAKOUT
WEATHER BY HOUR - JANUARY 31, 2013
[ °C ]   °F
Local TimeTemperatureDewpointHumidityBarometerVisibilityWind DirectionWind SpeedGust SpeedPrecipitationEventsConditions
1:53 AM53.1 °F46.9 °F80 %29.74 in10.0 miWSW (250°)17.3 mph23.0 mphOvercast
2:53 AM53.1 °F46.9 °F80 %29.75 in10.0 miWSW (250°)13.8 mph24.2 mphOvercast
3:53 AM50.0 °F36.0 °F59 %29.81 in10.0 miWest (270°)21.9 mph36.8 mphScattered Clouds
4:53 AM46.9 °F32.0 °F56 %29.85 in10.0 miWest (270°)18.4 mph28.8 mphClear
5:53 AM45.0 °F30.0 °F56 %29.88 in10.0 miWest (270°)23.0 mph33.4 mphClear
6:53 AM43.0 °F28.0 °F56 %29.93 in10.0 miWest (270°)18.4 mph26.5 mphClear
7:53 AM42.1 °F26.1 °F53 %29.96 in10.0 miWest (280°)18.4 mph27.6 mphClear
8:53 AM43.0 °F25.0 °F49 %30.01 in10.0 miWest (280°)18.4 mph27.6 mphClear
9:53 AM46.0 °F26.1 °F46 %30.01 in10.0 miWest (280°)18.4 mph28.8 mphClear
10:53 AM48.0 °F25.0 °F41 %30.03 in10.0 miWest (280°)11.5 mph24.2 mphClear
11:53 AM51.1 °F23.0 °F33 %30.02 in10.0 miWNW (300°)15.0 mph24.2 mphClear
12:53 PM53.1 °F21.9 °F30 %30.01 in10.0 miWest (280°)19.6 mph25.3 mphClear
1:53 PM53.1 °F18.0 °F25 %30.01 in10.0 miWNW (300°)23.0 mph34.5 mphClear
2:53 PM55.0 °F19.9 °F25 %30.01 in10.0 miWest (270°)19.6 mph27.6 mphClear
3:53 PM55.0 °F19.0 °F24 %30.02 in10.0 miWest (270°)21.9 mph28.8 mphClear
4:53 PM54.0 °F19.9 °F26 %30.04 in10.0 miWest (280°)15.0 mph27.6 mphClear
5:53 PM51.1 °F21.0 °F31 %30.06 in10.0 miWest (280°)8.1 mphClear
6:53 PM46.9 °F23.0 °F39 %30.10 in10.0 miWest (270°)6.9 mphClear
7:53 PM46.0 °F23.0 °F40 %30.11 in10.0 miWest (270°)8.1 mphClear
8:53 PM44.1 °F24.1 °F45 %30.14 in10.0 miWSW (250°)6.9 mphClear
9:53 PM43.0 °F25.0 °F49 %30.15 in10.0 miWSW (240°)6.9 mphClear
10:53 PM42.1 °F25.0 °F51 %30.17 in10.0 miWSW (250°)8.1 mphClear
11:53 PM42.1 °F25.0 °F51 %30.18 in10.0 miWest (260°)8.1 mphClear
Hourly data recorded from KOGB, located miles away from Bamberg, South Carolina







STORIES FROM OUR PARTNERS